Mexico City Airport, Mexico

1:10 AM CDT on April 26, 2017 (GMT -0500)
Lic Benito Juarez International

Weather History for MMMX - November, 2012

Change the Weather History Date:

Saturday, November 3, 2012

  Actual Average Record
Temperature  
Mean Temperature 62 °F -  
Max Temperature 71 °F 70 °F 77 °F (2015)
Min Temperature 53 °F 44 °F 35 °F (1999)
Degree Days  
Heating Degree Days 3    
Growing Degree Days 12 (Base 50)    
Moisture  
Dew Point 44 °F    
Average Humidity 58    
Maximum Humidity 82    
Minimum Humidity 31    
Precipitation  
Precipitation 0.50 in - - ()
Sea Level Pressure  
Sea Level Pressure 30.21 in    
Wind  
Wind Speed 5 mph ()    
Max Wind Speed 21 mph    
Max Gust Speed 24 mph    
Visibility 8.9 miles    
Events Rain    
Averages and records for this station are not official NWS values.
T = Trace of Precipitation, MM = Missing Value Source: Averaged Metar Reports

Daily Weather History Graph

Daily Weather History Graph

Search for Another Location

Airport or City:

Trip Planner

Search our weather history database for the weather conditions in past years. The results will help you decide how hot, cold, wet, or windy it might be!

Date:

Astronomy

Nov. 03, 2012 Rise Set
Actual Time 6:38 AM CST 6:01 PM CST
Civil Twilight 6:15 AM CST 6:23 PM CST
Nautical Twilight 5:49 AM CST 6:50 PM CST
Astronomical Twilight 5:23 AM CST 7:16 PM CST
Moon 9:55 PM CST (11/3) 10:30 AM CST (11/3)
Length of Visible Light 12h 08m
Length of Day
11h 22m
Waning Gibbous, 80% of the Moon is Illuminated
Nov 3
Waning Gibbous
Nov 6
Last Quarter
Nov 13
New
Nov 20
First Quarter
Nov 28
Full

Hourly Weather History & Observations

Time (CST) Temp. Dew Point Humidity Pressure Visibility Wind Dir Wind Speed Gust Speed Precip Events Conditions
12:44 AM 57.2 °F 41.0 °F 55% 30.30 in 12.0 mi ESE 5.8 mph - N/A   Scattered Clouds
1:51 AM 55.4 °F 41.0 °F 58% 30.29 in 12.0 mi SE 3.5 mph - N/A   Scattered Clouds
2:50 AM 53.6 °F 41.0 °F 62% 29.83 in 12.0 mi NE 3.5 mph - N/A   Mostly Cloudy
3:50 AM 53.6 °F 42.8 °F 67% 30.29 in 12.0 mi NNW 3.5 mph - N/A   Mostly Cloudy
4:45 AM 53.6 °F 42.8 °F 67% 30.29 in 12.0 mi NNW 3.5 mph - N/A   Mostly Cloudy
5:46 AM 53.6 °F 42.8 °F 67% 29.87 in 12.0 mi Calm Calm - N/A   Mostly Cloudy
6:24 AM 53.6 °F 42.8 °F 67% 30.31 in 10.0 mi Calm Calm - N/A   Overcast
6:46 AM 53.6 °F 41.0 °F 62% 30.33 in 7.0 mi North 4.6 mph - N/A   Overcast
7:23 AM 53.6 °F 42.8 °F 67% 30.34 in 7.0 mi NE 5.8 mph - N/A   Overcast
7:46 AM 55.4 °F 42.8 °F 63% 30.34 in 7.0 mi ENE 4.6 mph - N/A   Overcast
8:24 AM 55.4 °F 42.8 °F 63% 30.35 in 7.0 mi ENE 5.8 mph - N/A   Overcast
8:46 AM 57.2 °F 44.6 °F 63% 29.94 in 7.0 mi ENE 8.1 mph - N/A   Overcast
9:21 AM 59.0 °F 42.8 °F 55% 30.37 in 7.0 mi NNE 2.3 mph - N/A   Overcast
9:46 AM 62.6 °F 42.8 °F 48% 30.37 in 7.0 mi ENE 2.3 mph - N/A   Overcast
9:47 AM 62.6 °F 42.8 °F 48% 30.37 in 7.0 mi ENE 2.3 mph - N/A   Overcast
10:42 AM 62.6 °F 42.8 °F 48% 30.35 in 7.0 mi East 3.5 mph - N/A   Mostly Cloudy
11:38 AM 66.2 °F 42.8 °F 43% 30.32 in 7.0 mi East 3.5 mph - N/A   Scattered Clouds
11:43 AM 66.2 °F 42.8 °F 43% 29.85 in 7.0 mi East 3.5 mph - N/A   Scattered Clouds
12:16 PM 69.8 °F 41.0 °F 35% 30.30 in 7.0 mi East 5.8 mph - N/A   Scattered Clouds
12:45 PM 69.8 °F 41.0 °F 35% 30.29 in 7.0 mi ENE 6.9 mph - N/A   Mostly Cloudy
1:47 PM 71.6 °F 39.2 °F 31% 30.25 in 8.0 mi SE 11.5 mph - N/A   Mostly Cloudy
2:46 PM 68.0 °F 42.8 °F 40% 30.24 in 8.0 mi SSE 20.7 mph - N/A   Mostly Cloudy
2:48 PM 68.0 °F 42.8 °F 40% 29.78 in 8.0 mi SSE 20.7 mph - N/A   Mostly Cloudy
3:48 PM 66.2 °F 46.4 °F 49% 30.24 in 9.0 mi SSE 12.7 mph 24.2 mph N/A Rain Light Rain
4:25 PM 64.4 °F 44.6 °F 49% 30.24 in 9.0 mi SE 17.3 mph - N/A   Overcast
4:45 PM 62.6 °F 46.4 °F 55% 30.26 in 9.0 mi SSE 11.5 mph 23.0 mph N/A Rain Light Rain
5:09 PM 62.6 °F 46.4 °F 55% 30.26 in 9.0 mi SE 12.7 mph 24.2 mph N/A   Overcast
5:45 PM 62.6 °F 46.4 °F 55% 29.83 in 9.0 mi SE 12.7 mph 24.2 mph N/A   Overcast
6:45 PM 60.8 °F 50.0 °F 68% 30.29 in 10.0 mi SE 11.5 mph 23.0 mph N/A   Overcast
7:45 PM 59.0 °F 50.0 °F 72% 30.31 in 10.0 mi SE 12.7 mph - N/A Rain Light Rain
8:42 PM 57.2 °F 50.0 °F 77% 29.89 in 8.0 mi SSE 8.1 mph - N/A Rain Light Rain
9:49 PM 57.2 °F 50.0 °F 77% 30.34 in 9.0 mi SE 6.9 mph - N/A Rain Light Rain
10:45 PM 55.4 °F 50.0 °F 82% 30.34 in 10.0 mi Calm Calm - N/A   Overcast
10:48 PM 55.4 °F 50.0 °F 82% 30.34 in 10.0 mi Calm Calm - N/A   Overcast
11:47 PM 55.4 °F 50.0 °F 82% 29.88 in 12.0 mi SE 4.6 mph - N/A   Overcast